Time,TemperatureF,DewpointF,PressureIn,WindDirection,WindDirectionDegrees,WindSpeedMPH,WindSpeedGustMPH,Humidity,HourlyPrecipIn,Conditions,Clouds,dailyrainin,SolarRadiationWatts/m^2,SoftwareType,DateUTC
2013-07-22 00:01:00,59.0,57.0,-100.00,SSW,196,2.0,5.0,94,0.00,,,0.00,0.000000,,2013-07-22 05:01:00,
2013-07-22 00:22:00,59.0,57.0,-100.00,SSW,196,2.0,5.0,94,0.00,,,0.00,0.000000,,2013-07-22 05:22:00,
2013-07-22 00:32:00,59.0,57.0,-100.00,SSW,196,2.0,5.0,94,0.00,,,0.00,0.000000,,2013-07-22 05:32:00,
2013-07-22 00:43:00,59.0,57.0,-100.00,SSW,196,2.0,5.0,94,0.00,,,0.00,0.000000,,2013-07-22 05:43:00,
2013-07-22 00:52:00,59.0,57.0,-100.00,SSW,196,2.0,5.0,94,0.00,,,0.00,0.000000,,2013-07-22 05:52:00,
2013-07-22 01:01:00,59.0,57.0,-100.00,South,175,4.0,7.0,94,0.00,,,0.00,0.000000,,2013-07-22 06:01:00,
2013-07-22 01:22:00,59.0,57.0,-100.00,South,175,4.0,7.0,94,0.00,,,0.00,0.000000,,2013-07-22 06:22:00,
2013-07-22 01:33:00,59.0,57.0,-100.00,South,175,4.0,7.0,94,0.00,,,0.00,0.000000,,2013-07-22 06:33:00,
2013-07-22 01:43:00,59.0,57.0,-100.00,South,175,4.0,7.0,94,0.00,,,0.00,0.000000,,2013-07-22 06:43:00,
2013-07-22 01:52:00,59.0,57.0,-100.00,South,175,4.0,7.0,94,0.00,,,0.00,0.000000,,2013-07-22 06:52:00,
2013-07-22 02:01:00,58.0,57.0,-100.00,WSW,240,3.0,7.0,96,0.00,,,0.00,0.000000,,2013-07-22 07:01:00,
2013-07-22 02:22:00,58.0,57.0,-100.00,WSW,240,3.0,7.0,96,0.00,,,0.00,0.000000,,2013-07-22 07:22:00,
2013-07-22 02:33:00,58.0,57.0,-100.00,WSW,240,3.0,7.0,96,0.00,,,0.00,0.000000,,2013-07-22 07:33:00,
2013-07-22 02:43:00,58.0,57.0,-100.00,WSW,240,3.0,7.0,96,0.00,,,0.00,0.000000,,2013-07-22 07:43:00,
2013-07-22 02:53:00,58.0,57.0,-100.00,WSW,240,3.0,7.0,96,0.00,,,0.00,0.000000,,2013-07-22 07:53:00,
2013-07-22 03:01:00,59.0,58.0,-100.00,SSW,209,5.0,8.0,96,0.00,,,0.00,0.000000,,2013-07-22 08:01:00,
2013-07-22 03:22:00,59.0,58.0,-100.00,SSW,209,5.0,8.0,96,0.00,,,0.00,0.000000,,2013-07-22 08:22:00,
2013-07-22 03:32:00,59.0,58.0,-100.00,SSW,209,5.0,8.0,96,0.00,,,0.00,0.000000,,2013-07-22 08:32:00,
2013-07-22 03:43:00,59.0,58.0,-100.00,SSW,209,5.0,8.0,96,0.00,,,0.00,0.000000,,2013-07-22 08:43:00,
2013-07-22 03:52:00,59.0,58.0,-100.00,SSW,209,5.0,8.0,96,0.00,,,0.00,0.000000,,2013-07-22 08:52:00,
2013-07-22 04:01:00,58.0,57.0,-100.00,SSW,196,4.0,10.0,96,0.00,,,0.00,0.000000,,2013-07-22 09:01:00,
2013-07-22 04:22:00,58.0,57.0,-100.00,SSW,196,4.0,10.0,96,0.00,,,0.00,0.000000,,2013-07-22 09:22:00,
2013-07-22 04:33:00,58.0,57.0,-100.00,SSW,196,4.0,10.0,96,0.00,,,0.00,0.000000,,2013-07-22 09:33:00,
2013-07-22 04:42:00,58.0,57.0,-100.00,SSW,196,4.0,10.0,96,0.00,,,0.00,0.000000,,2013-07-22 09:42:00,
2013-07-22 04:52:00,58.0,57.0,-100.00,SSW,196,4.0,10.0,96,0.00,,,0.00,0.000000,,2013-07-22 09:52:00,
2013-07-22 05:01:00,59.0,58.0,-100.00,SSW,194,3.0,8.0,95,0.00,,,0.00,0.000000,,2013-07-22 10:01:00,
2013-07-22 05:22:00,59.0,58.0,-100.00,SSW,194,3.0,8.0,95,0.00,,,0.00,0.000000,,2013-07-22 10:22:00,
2013-07-22 05:32:00,59.0,58.0,-100.00,SSW,194,3.0,8.0,95,0.00,,,0.00,0.000000,,2013-07-22 10:32:00,
2013-07-22 05:43:00,59.0,58.0,-100.00,SSW,194,3.0,8.0,95,0.00,,,0.00,0.000000,,2013-07-22 10:43:00,
2013-07-22 05:53:00,59.0,58.0,-100.00,SSW,194,3.0,8.0,95,0.00,,,0.00,0.000000,,2013-07-22 10:53:00,
2013-07-22 06:01:00,60.0,58.0,-100.00,SSW,212,5.0,10.0,93,0.00,,,0.00,8.000000,,2013-07-22 11:01:00,
2013-07-22 06:23:00,60.0,58.0,-100.00,SSW,212,5.0,10.0,93,0.00,,,0.00,8.000000,,2013-07-22 11:23:00,
2013-07-22 06:32:00,60.0,58.0,-100.00,SSW,212,5.0,10.0,93,0.00,,,0.00,8.000000,,2013-07-22 11:32:00,
2013-07-22 06:43:00,60.0,58.0,-100.00,SSW,212,5.0,10.0,93,0.00,,,0.00,8.000000,,2013-07-22 11:43:00,
2013-07-22 06:52:00,60.0,58.0,-100.00,SSW,212,5.0,10.0,93,0.00,,,0.00,8.000000,,2013-07-22 11:52:00,
2013-07-22 07:01:00,61.0,59.0,-100.00,SSW,212,9.0,17.0,93,0.00,,,0.00,64.000000,,2013-07-22 12:01:00,
2013-07-22 07:22:00,61.0,59.0,-100.00,SSW,212,9.0,17.0,93,0.00,,,0.00,64.000000,,2013-07-22 12:22:00,
2013-07-22 07:33:00,61.0,59.0,-100.00,SSW,212,9.0,17.0,93,0.00,,,0.00,64.000000,,2013-07-22 12:33:00,
2013-07-22 07:43:00,61.0,59.0,-100.00,SSW,212,9.0,17.0,93,0.00,,,0.00,64.000000,,2013-07-22 12:43:00,
2013-07-22 07:53:00,61.0,59.0,-100.00,SSW,212,9.0,17.0,93,0.00,,,0.00,64.000000,,2013-07-22 12:53:00,
2013-07-22 08:01:00,63.0,60.0,-100.00,SW,216,9.0,17.0,91,0.00,,,0.00,175.000000,,2013-07-22 13:01:00,
2013-07-22 08:22:00,63.0,60.0,-100.00,SW,216,9.0,17.0,91,0.00,,,0.00,175.000000,,2013-07-22 13:22:00,
2013-07-22 08:32:00,63.0,60.0,-100.00,SW,216,9.0,17.0,91,0.00,,,0.00,175.000000,,2013-07-22 13:32:00,
2013-07-22 08:43:00,63.0,60.0,-100.00,SW,216,9.0,17.0,91,0.00,,,0.00,175.000000,,2013-07-22 13:43:00,
2013-07-22 08:53:00,63.0,60.0,-100.00,SW,216,9.0,17.0,91,0.00,,,0.00,175.000000,,2013-07-22 13:53:00,
2013-07-22 09:01:00,66.0,62.0,-100.00,SSW,212,9.0,17.0,87,0.00,,,0.00,230.000000,,2013-07-22 14:01:00,
2013-07-22 09:22:00,66.0,62.0,-100.00,SSW,212,9.0,17.0,87,0.00,,,0.00,230.000000,,2013-07-22 14:22:00,
2013-07-22 09:32:00,66.0,62.0,-100.00,SSW,212,9.0,17.0,87,0.00,,,0.00,230.000000,,2013-07-22 14:32:00,
2013-07-22 09:43:00,66.0,62.0,-100.00,SSW,212,9.0,17.0,87,0.00,,,0.00,230.000000,,2013-07-22 14:43:00,
2013-07-22 09:53:00,66.0,62.0,-100.00,SSW,212,9.0,17.0,87,0.00,,,0.00,230.000000,,2013-07-22 14:53:00,
2013-07-22 10:01:00,68.0,63.0,-100.00,SW,221,11.0,18.0,84,0.00,,,0.00,286.000000,,2013-07-22 15:01:00,
2013-07-22 10:22:00,68.0,63.0,-100.00,SW,221,11.0,18.0,84,0.00,,,0.00,286.000000,,2013-07-22 15:22:00,
2013-07-22 10:33:00,68.0,63.0,-100.00,SW,221,11.0,18.0,84,0.00,,,0.00,286.000000,,2013-07-22 15:33:00,
2013-07-22 10:43:00,68.0,63.0,-100.00,SW,221,11.0,18.0,84,0.00,,,0.00,286.000000,,2013-07-22 15:43:00,
2013-07-22 10:52:00,68.0,63.0,-100.00,SW,221,11.0,18.0,84,0.00,,,0.00,286.000000,,2013-07-22 15:52:00,
2013-07-22 11:01:00,74.0,64.0,-100.00,SW,234,10.0,20.0,71,0.00,,,0.00,691.000000,,2013-07-22 16:01:00,
2013-07-22 11:22:00,74.0,64.0,-100.00,SW,234,10.0,20.0,71,0.00,,,0.00,691.000000,,2013-07-22 16:22:00,
2013-07-22 11:32:00,74.0,64.0,-100.00,SW,234,10.0,20.0,71,0.00,,,0.00,691.000000,,2013-07-22 16:32:00,
2013-07-22 11:43:00,74.0,64.0,-100.00,SW,234,10.0,20.0,71,0.00,,,0.00,691.000000,,2013-07-22 16:43:00,
2013-07-22 11:52:00,74.0,64.0,-100.00,SW,234,10.0,20.0,71,0.00,,,0.00,691.000000,,2013-07-22 16:52:00,
2013-07-22 12:01:00,76.0,64.0,-100.00,SW,221,12.0,22.0,66,0.00,,,0.00,747.000000,,2013-07-22 17:01:00,
2013-07-22 12:23:00,76.0,64.0,-100.00,SW,221,12.0,22.0,66,0.00,,,0.00,747.000000,,2013-07-22 17:23:00,
2013-07-22 12:33:00,76.0,64.0,-100.00,SW,221,12.0,22.0,66,0.00,,,0.00,747.000000,,2013-07-22 17:33:00,
2013-07-22 12:43:00,76.0,64.0,-100.00,SW,221,12.0,22.0,66,0.00,,,0.00,747.000000,,2013-07-22 17:43:00,
2013-07-22 12:52:00,76.0,64.0,-100.00,SW,221,12.0,22.0,66,0.00,,,0.00,747.000000,,2013-07-22 17:52:00,
2013-07-22 13:01:00,80.0,63.0,-100.00,SW,228,10.0,22.0,57,0.00,,,0.00,918.000000,,2013-07-22 18:01:00,
2013-07-22 13:29:00,80.0,63.0,-100.00,SW,228,10.0,22.0,57,0.00,,,0.00,918.000000,,2013-07-22 18:29:00,
2013-07-22 13:54:00,80.0,63.0,-100.00,SW,228,10.0,22.0,57,0.00,,,0.00,918.000000,,2013-07-22 18:54:00,
2013-07-22 14:01:00,80.0,64.0,-100.00,SW,235,11.0,24.0,58,0.00,,,0.00,718.000000,,2013-07-22 19:01:00,
2013-07-22 14:26:00,80.0,64.0,-100.00,SW,235,11.0,24.0,58,0.00,,,0.00,718.000000,,2013-07-22 19:26:00,
2013-07-22 14:37:00,80.0,64.0,-100.00,SW,235,11.0,24.0,58,0.00,,,0.00,718.000000,,2013-07-22 19:37:00,
2013-07-22 14:46:00,80.0,64.0,-100.00,SW,235,11.0,24.0,58,0.00,,,0.00,718.000000,,2013-07-22 19:46:00,
2013-07-22 14:55:00,80.0,64.0,-100.00,SW,235,11.0,24.0,58,0.00,,,0.00,718.000000,,2013-07-22 19:55:00,
2013-07-22 15:01:00,79.0,66.0,-100.00,WSW,244,9.0,21.0,65,0.00,,,0.00,710.000000,,2013-07-22 20:01:00,
2013-07-22 15:22:00,79.0,66.0,-100.00,WSW,244,9.0,21.0,65,0.00,,,0.00,710.000000,,2013-07-22 20:22:00,
2013-07-22 15:32:00,79.0,66.0,-100.00,WSW,244,9.0,21.0,65,0.00,,,0.00,710.000000,,2013-07-22 20:32:00,
2013-07-22 15:43:00,79.0,66.0,-100.00,WSW,244,9.0,21.0,65,0.00,,,0.00,710.000000,,2013-07-22 20:43:00,
2013-07-22 15:52:00,79.0,66.0,-100.00,WSW,244,9.0,21.0,65,0.00,,,0.00,710.000000,,2013-07-22 20:52:00,
2013-07-22 16:01:00,80.0,68.0,-100.00,WSW,239,8.0,17.0,67,0.00,,,0.00,410.000000,,2013-07-22 21:01:00,
2013-07-22 16:22:00,80.0,68.0,-100.00,WSW,239,8.0,17.0,67,0.00,,,0.00,410.000000,,2013-07-22 21:22:00,
2013-07-22 16:33:00,80.0,68.0,-100.00,WSW,239,8.0,17.0,67,0.00,,,0.00,410.000000,,2013-07-22 21:33:00,
2013-07-22 16:43:00,80.0,68.0,-100.00,WSW,239,8.0,17.0,67,0.00,,,0.00,410.000000,,2013-07-22 21:43:00,
2013-07-22 16:53:00,80.0,68.0,-100.00,WSW,239,8.0,17.0,67,0.00,,,0.00,410.000000,,2013-07-22 21:53:00,
2013-07-22 17:01:00,76.0,68.0,-100.00,WSW,248,4.0,21.0,76,0.00,,,0.00,428.000000,,2013-07-22 22:01:00,
2013-07-22 17:22:00,76.0,68.0,-100.00,WSW,248,4.0,21.0,76,0.00,,,0.00,428.000000,,2013-07-22 22:22:00,
2013-07-22 17:32:00,76.0,68.0,-100.00,WSW,248,4.0,21.0,76,0.00,,,0.00,428.000000,,2013-07-22 22:32:00,
2013-07-22 17:43:00,76.0,68.0,-100.00,WSW,248,4.0,21.0,76,0.00,,,0.00,428.000000,,2013-07-22 22:43:00,
2013-07-22 17:52:00,76.0,68.0,-100.00,WSW,248,4.0,21.0,76,0.00,,,0.00,428.000000,,2013-07-22 22:52:00,
2013-07-22 18:01:00,74.0,66.0,-100.00,NNW,328,6.0,20.0,76,0.01,,,0.01,237.000000,,2013-07-22 23:01:00,
2013-07-22 18:22:00,74.0,66.0,-100.00,NNW,328,6.0,20.0,76,0.01,,,0.01,237.000000,,2013-07-22 23:22:00,
2013-07-22 18:32:00,74.0,66.0,-100.00,NNW,328,6.0,20.0,76,0.01,,,0.01,237.000000,,2013-07-22 23:32:00,
2013-07-22 18:43:00,74.0,66.0,-100.00,NNW,328,6.0,20.0,76,0.01,,,0.01,237.000000,,2013-07-22 23:43:00,
2013-07-22 18:52:00,74.0,66.0,-100.00,NNW,328,6.0,20.0,76,0.01,,,0.01,237.000000,,2013-07-22 23:52:00,
2013-07-22 19:01:00,70.0,57.0,-100.00,NNW,335,6.0,18.0,64,0.00,,,0.01,370.000000,,2013-07-23 00:01:00,
2013-07-22 19:22:00,70.0,57.0,-100.00,NNW,335,6.0,18.0,64,0.00,,,0.01,370.000000,,2013-07-23 00:22:00,
2013-07-22 19:32:00,70.0,57.0,-100.00,NNW,335,6.0,18.0,64,0.00,,,0.01,370.000000,,2013-07-23 00:32:00,
2013-07-22 19:43:00,70.0,57.0,-100.00,NNW,335,6.0,18.0,64,0.00,,,0.01,370.000000,,2013-07-23 00:43:00,
2013-07-22 19:52:00,70.0,57.0,-100.00,NNW,335,6.0,18.0,64,0.00,,,0.01,370.000000,,2013-07-23 00:52:00,
2013-07-22 20:01:00,68.0,56.0,-100.00,NW,317,7.0,15.0,66,0.00,,,0.01,173.000000,,2013-07-23 01:01:00,
2013-07-22 20:22:00,68.0,56.0,-100.00,NW,317,7.0,15.0,66,0.00,,,0.01,173.000000,,2013-07-23 01:22:00,
2013-07-22 20:32:00,68.0,56.0,-100.00,NW,317,7.0,15.0,66,0.00,,,0.01,173.000000,,2013-07-23 01:32:00,
2013-07-22 20:43:00,68.0,56.0,-100.00,NW,317,7.0,15.0,66,0.00,,,0.01,173.000000,,2013-07-23 01:43:00,
2013-07-22 20:53:00,68.0,56.0,-100.00,NW,317,7.0,15.0,66,0.00,,,0.01,173.000000,,2013-07-23 01:53:00,
2013-07-22 21:01:00,63.0,56.0,-100.00,NW,309,4.0,10.0,78,0.00,,,0.01,17.000000,,2013-07-23 02:01:00,
2013-07-22 21:22:00,63.0,56.0,-100.00,NW,309,4.0,10.0,78,0.00,,,0.01,17.000000,,2013-07-23 02:22:00,
2013-07-22 21:33:00,63.0,56.0,-100.00,NW,309,4.0,10.0,78,0.00,,,0.01,17.000000,,2013-07-23 02:33:00,
2013-07-22 21:43:00,63.0,56.0,-100.00,NW,309,4.0,10.0,78,0.00,,,0.01,17.000000,,2013-07-23 02:43:00,
2013-07-22 21:53:00,63.0,56.0,-100.00,NW,309,4.0,10.0,78,0.00,,,0.01,17.000000,,2013-07-23 02:53:00,
2013-07-22 22:01:00,61.0,55.0,-100.00,NW,321,5.0,12.0,80,0.00,,,0.01,0.000000,,2013-07-23 03:01:00,
2013-07-22 22:22:00,61.0,55.0,-100.00,NW,321,5.0,12.0,80,0.00,,,0.01,0.000000,,2013-07-23 03:22:00,
2013-07-22 22:33:00,61.0,55.0,-100.00,NW,321,5.0,12.0,80,0.00,,,0.01,0.000000,,2013-07-23 03:33:00,
2013-07-22 22:43:00,61.0,55.0,-100.00,NW,321,5.0,12.0,80,0.00,,,0.01,0.000000,,2013-07-23 03:43:00,
2013-07-22 22:52:00,61.0,55.0,-100.00,NW,321,5.0,12.0,80,0.00,,,0.01,0.000000,,2013-07-23 03:52:00,
2013-07-22 23:01:00,60.0,52.0,-100.00,NW,317,6.0,13.0,76,0.00,,,0.01,0.000000,,2013-07-23 04:01:00,
2013-07-22 23:22:00,60.0,52.0,-100.00,NW,317,6.0,13.0,76,0.00,,,0.01,0.000000,,2013-07-23 04:22:00,
2013-07-22 23:32:00,60.0,52.0,-100.00,NW,317,6.0,13.0,76,0.00,,,0.01,0.000000,,2013-07-23 04:32:00,
2013-07-22 23:43:00,60.0,52.0,-100.00,NW,317,6.0,13.0,76,0.00,,,0.01,0.000000,,2013-07-23 04:43:00,
2013-07-22 23:53:00,60.0,52.0,-100.00,NW,317,6.0,13.0,76,0.00,,,0.01,0.000000,,2013-07-23 04:53:00,